DLH2LL EDDF-LIMC

Flight info

Callsign DLH2LL
Flight time N/A
Altitude 33000
Route ANEKI2L/18 ANEKI Y163 NATOR DCT DITON DCT BASGO Z424 RIXUV RIXUV3E
Aircraft A321/M-SDE3FGHIRWY/LB1

Departure

Time N/A
Airport Frankfurt Main Airport (EDDF)

Arrival

Time 2026-05-04 20:19
Airport Milan Malpensa International Airport (LIMC)
Time Latitude Longitude Altitude Speed Heading
2026-05-04 19:53 46.89504 8.38869 33015 ft 432 kts 178°
2026-05-04 19:54 46.86495 8.39281 33017 ft 432 kts 177°
2026-05-04 19:54 46.80495 8.40098 33019 ft 433 kts 178°
2026-05-04 19:55 46.74487 8.40909 33020 ft 433 kts 178°
2026-05-04 19:55 46.68498 8.41716 33024 ft 434 kts 178°
2026-05-04 19:55 46.65486 8.42123 32902 ft 435 kts 178°
2026-05-04 19:56 46.62474 8.42528 32651 ft 435 kts 178°
2026-05-04 19:56 46.59461 8.42935 32340 ft 435 kts 178°
2026-05-04 19:56 46.56434 8.43335 31428 ft 439 kts 178°
2026-05-04 19:56 46.53383 8.43737 30542 ft 441 kts 177°
2026-05-04 19:57 46.50315 8.44143 29596 ft 444 kts 177°
2026-05-04 19:57 46.47218 8.44559 28587 ft 448 kts 177°
2026-05-04 19:57 46.44108 8.44975 27669 ft 449 kts 176°
2026-05-04 19:57 46.40982 8.45392 26577 ft 453 kts 176°
2026-05-04 19:58 46.37834 8.45809 25621 ft 453 kts 177°
2026-05-04 19:58 46.34729 8.46223 25030 ft 445 kts 176°
2026-05-04 19:58 46.31664 8.46634 24334 ft 440 kts 177°
2026-05-04 19:58 46.28632 8.47041 23651 ft 434 kts 177°
2026-05-04 19:59 46.25677 8.47441 22955 ft 429 kts 176°
2026-05-04 19:59 46.22722 8.47857 22262 ft 423 kts 176°
2026-05-04 19:59 46.19813 8.48275 21591 ft 418 kts 176°
2026-05-04 19:59 46.16932 8.48693 20924 ft 412 kts 176°
2026-05-04 20:00 46.14089 8.49112 20259 ft 407 kts 176°
2026-05-04 20:00 46.11305 8.49669 19597 ft 404 kts 170°
2026-05-04 20:00 46.08627 8.50835 18967 ft 400 kts 162°
2026-05-04 20:00 46.06046 8.52244 18540 ft 390 kts 162°
2026-05-04 20:01 46.03559 8.53591 18415 ft 374 kts 162°
2026-05-04 20:01 46.01177 8.54872 18277 ft 356 kts 162°
2026-05-04 20:01 45.98932 8.56076 18158 ft 341 kts 162°
2026-05-04 20:01 45.96760 8.57241 18002 ft 327 kts 162°
2026-05-04 20:02 45.94648 8.58369 17694 ft 321 kts 162°
2026-05-04 20:02 45.92578 8.59474 17434 ft 315 kts 162°
2026-05-04 20:02 45.90536 8.60607 17183 ft 315 kts 158°
2026-05-04 20:02 45.88664 8.62238 16933 ft 316 kts 145°
2026-05-04 20:03 45.86959 8.64230 16683 ft 315 kts 144°
2026-05-04 20:03 45.85261 8.66208 16304 ft 313 kts 144°
2026-05-04 20:03 45.83564 8.68173 15840 ft 312 kts 144°
2026-05-04 20:03 45.81874 8.70126 15367 ft 310 kts 144°
2026-05-04 20:04 45.80200 8.72062 14961 ft 307 kts 144°
2026-05-04 20:04 45.78537 8.73984 14503 ft 305 kts 144°
2026-05-04 20:04 45.76890 8.75876 14052 ft 303 kts 146°
2026-05-04 20:04 45.75133 8.77407 13703 ft 296 kts 154°
2026-05-04 20:05 45.73323 8.78793 13279 ft 294 kts 154°
2026-05-04 20:05 45.71526 8.80172 12873 ft 292 kts 154°
2026-05-04 20:05 45.69746 8.81544 12475 ft 289 kts 154°
2026-05-04 20:05 45.67980 8.82906 12061 ft 286 kts 154°
2026-05-04 20:06 45.66235 8.84251 11665 ft 283 kts 153°
2026-05-04 20:06 45.64558 8.85545 11518 ft 270 kts 153°
2026-05-04 20:06 45.62942 8.86791 11014 ft 259 kts 153°
2026-05-04 20:06 45.61307 8.87799 10707 ft 254 kts 166°
2026-05-04 20:07 45.59571 8.88300 10458 ft 256 kts 169°
2026-05-04 20:07 45.57824 8.88771 10207 ft 255 kts 169°
2026-05-04 20:07 45.56076 8.89245 9984 ft 255 kts 169°
2026-05-04 20:07 45.54347 8.89715 9762 ft 256 kts 169°
2026-05-04 20:08 45.52595 8.90192 9474 ft 256 kts 169°
2026-05-04 20:08 45.50847 8.90665 9171 ft 256 kts 169°
2026-05-04 20:08 45.49102 8.91137 8917 ft 252 kts 168°
2026-05-04 20:08 45.47384 8.91604 8615 ft 250 kts 168°
2026-05-04 20:09 45.45679 8.92067 8277 ft 249 kts 168°
2026-05-04 20:09 45.43978 8.92531 7943 ft 248 kts 168°
2026-05-04 20:09 45.42307 8.92987 7622 ft 246 kts 168°
2026-05-04 20:09 45.40625 8.93445 7283 ft 245 kts 168°
2026-05-04 20:10 45.38954 8.93899 6935 ft 244 kts 168°
2026-05-04 20:10 45.37284 8.94347 6593 ft 244 kts 169°
2026-05-04 20:10 45.35621 8.94799 6264 ft 242 kts 169°
2026-05-04 20:10 45.33977 8.95243 6031 ft 235 kts 169°
2026-05-04 20:11 45.32354 8.95363 5955 ft 236 kts 191°
2026-05-04 20:11 45.30940 8.94335 5670 ft 232 kts 225°
2026-05-04 20:11 45.30129 8.92347 5553 ft 240 kts 256°
2026-05-04 20:11 45.29826 8.89999 5423 ft 242 kts 259°
2026-05-04 20:12 45.29514 8.87653 5303 ft 242 kts 258°
2026-05-04 20:12 45.29226 8.85329 5190 ft 232 kts 265°
2026-05-04 20:12 45.29576 8.83180 5051 ft 223 kts 302°
2026-05-04 20:12 45.30705 8.81781 4927 ft 220 kts 338°
2026-05-04 20:13 45.32195 8.81320 4821 ft 220 kts 351°
2026-05-04 20:13 45.33703 8.80934 4682 ft 219 kts 349°
2026-05-04 20:13 45.35196 8.80523 4566 ft 219 kts 349°
2026-05-04 20:13 45.36695 8.80103 4440 ft 218 kts 349°
2026-05-04 20:14 45.38189 8.79761 4313 ft 218 kts 353°
2026-05-04 20:14 45.39692 8.79503 4186 ft 217 kts 354°
2026-05-04 20:14 45.41194 8.79268 4083 ft 217 kts 353°
2026-05-04 20:14 45.42665 8.78943 3994 ft 216 kts 350°
2026-05-04 20:15 45.44136 8.78548 4008 ft 210 kts 349°
2026-05-04 20:15 45.45525 8.78166 3843 ft 197 kts 349°
2026-05-04 20:15 45.46847 8.77804 3612 ft 189 kts 349°
2026-05-04 20:15 45.48120 8.77454 3373 ft 183 kts 349°
2026-05-04 20:16 45.49344 8.77118 3137 ft 179 kts 349°
2026-05-04 20:16 45.50551 8.76786 2902 ft 174 kts 349°
2026-05-04 20:16 45.51726 8.76462 2670 ft 168 kts 349°
2026-05-04 20:16 45.52839 8.76156 2460 ft 160 kts 348°
2026-05-04 20:17 45.53919 8.75859 2247 ft 157 kts 348°
2026-05-04 20:17 45.54984 8.75566 2040 ft 155 kts 348°
2026-05-04 20:17 45.56044 8.75279 1820 ft 155 kts 348°
2026-05-04 20:17 45.57101 8.74987 1637 ft 155 kts 346°
2026-05-04 20:18 45.58154 8.74693 1452 ft 154 kts 347°
2026-05-04 20:18 45.59207 8.74414 1225 ft 154 kts 348°
2026-05-04 20:18 45.60253 8.74123 1050 ft 153 kts 346°
2026-05-04 20:18 45.61293 8.73834 856 ft 152 kts 347°
2026-05-04 20:19 45.62300 8.73545 748 ft 137 kts 349°
2026-05-04 20:19 45.63086 8.73331 743 ft 93 kts 349°
2026-05-04 20:19 45.63530 8.73207 748 ft 39 kts 346°
2026-05-04 20:19 45.63745 8.73031 750 ft 29 kts 316°
2026-05-04 20:20 45.63861 8.72817 752 ft 20 kts 304°
2026-05-04 20:20 45.63903 8.72728 752 ft 9 kts 304°
2026-05-04 20:20 45.63940 8.72650 752 ft 10 kts 304°
2026-05-04 20:20 45.63954 8.72547 751 ft 12 kts 262°
2026-05-04 20:21 45.63938 8.72426 752 ft 13 kts 259°
2026-05-04 20:21 45.63921 8.72290 750 ft 14 kts 261°
2026-05-04 20:21 45.63906 8.71958 746 ft 11 kts 260°
2026-05-04 20:22 45.63882 8.71872 751 ft 9 kts 236°
2026-05-04 20:22 45.63832 8.71825 752 ft 9 kts 193°
2026-05-04 20:22 45.63763 8.71835 752 ft 11 kts 169°
2026-05-04 20:22 45.63682 8.71859 752 ft 13 kts 170°
2026-05-04 20:23 45.63593 8.71882 752 ft 11 kts 169°
2026-05-04 20:23 45.63523 8.71901 752 ft 11 kts 169°
2026-05-04 20:23 45.63441 8.71923 750 ft 13 kts 169°
2026-05-04 20:23 45.63363 8.71945 750 ft 8 kts 169°
2026-05-04 20:24 45.63300 8.71962 752 ft 10 kts 169°
2026-05-04 20:24 45.63226 8.71983 752 ft 12 kts 169°
2026-05-04 20:24 45.63140 8.72006 752 ft 13 kts 169°
2026-05-04 20:24 45.63053 8.72030 752 ft 10 kts 169°
2026-05-04 20:25 45.62980 8.72050 752 ft 11 kts 169°
2026-05-04 20:25 45.62896 8.72073 750 ft 13 kts 169°
2026-05-04 20:25 45.62807 8.72098 752 ft 12 kts 169°
2026-05-04 20:25 45.62726 8.72116 752 ft 12 kts 183°
2026-05-04 20:26 45.62678 8.72030 751 ft 11 kts 256°
2026-05-04 20:26 45.62663 8.71925 751 ft 12 kts 259°
2026-05-04 20:26 45.62628 8.71843 753 ft 10 kts 193°
2026-05-04 20:26 45.62555 8.71856 753 ft 6 kts 169°
2026-05-04 20:27 45.62517 8.71829 753 ft 8 kts 245°
2026-05-04 20:27 45.62508 8.71771 753 ft 3 kts 259°
2026-05-04 20:27 45.62507 8.71764 753 ft 0 kts 259°
2026-05-04 20:28 45.62507 8.71761 751 ft 1 kts 259°
2026-05-04 20:28 45.62506 8.71756 753 ft 0 kts 259°